Regional Weather Roundup
Issued by NWS

Home | Current Version | Previous Version | Graphics & Text | Print | Product List | Glossary On
Versions: 1 2 3 4 5 6 7 8 9 10 11 12 13 14 15 16 17 18 19 20 21 22 23 24 25 26 27 28 29 30 31 32 33 34 35 36 37 38 39 40 41 42 43 44 45 46 47 48 49 50
000
ASUS43 KDMX 222001
RWRIA

WEATHER ROUNDUP FOR IOWA
NATIONAL WEATHER SERVICE DES MOINES IA
200 PM CST WED FEB 22 2017

NOTE: "FAIR" INDICATES FEW OR NO CLOUDS BELOW 12,000 FEET WITH NO
SIGNIFICANT WEATHER AND/OR OBSTRUCTIONS TO VISIBILITY.

* - THESE STATIONS ARE NOT NWS STATIONS...THUS NOT UNDER NWS
QUALITY CONTROL.  THEY ALSO DO NOT REPORT WEATHER SUCH
AS PRECIPITATION OR FOG.

IAZ001>003-012>014-020>022-031>034-043>046-222100-
   NORTHWEST IOWA

CITY           SKY/WX    TMP DP  RH WIND       PRES   REMARKS
CARROLL *      SUNNY     70  43  37 NW14      29.60S
CHEROKEE *     SUNNY     65  42  41 NW12G22   29.61R
DENISON *      SUNNY     68  41  37 NW15G23   29.60S
LE MARS *      SUNNY     63  43  48 MISG      29.64R
ORANGE CITY *  SUNNY     63  46  55 W21       29.62S
SHELDON *      SUNNY     61  48  63 W21G26    29.60S
SIOUX CITY     SUNNY     68  39  34 NW18      29.63R
SPENCER        SUNNY     64  45  49 NW14      29.60R
STORM LAKE *   SUNNY     64  45  48 NW23      29.60S
$$

IAZ055>058-069>071-079>083-090>094-222100-
   SOUTHWEST IOWA

CITY           SKY/WX    TMP DP  RH WIND       PRES   REMARKS
ATLANTIC *     SUNNY     68  39  34 W7        29.62F
CLARINDA *     SUNNY     70  37  30 NW10G17   29.66
COUNCIL BLFS * SUNNY     72  39  30 NW13      29.63F
CRESTON *      SUNNY     68  37  32 W17       29.64R
HARLAN  *      SUNNY     68  41  37 NW17G23   29.66S
LAMONI         SUNNY     75  35  23 SW17      29.61F
RED OAK *      SUNNY     70  37  30 VRB6G14   29.64F
SHENANDOAH *   SUNNY     70  37  30 W9        29.64F
$$

IAZ047>049-059>061-072>074-084-222100-
   CENTRAL IOWA

CITY           SKY/WX    TMP DP  RH WIND       PRES   REMARKS
AMES           SUNNY     65  43  44 W15       29.58F
ANKENY *       SUNNY     70  36  28 W14G22    29.59S
BOONE *        SUNNY     64  41  42 W16       29.58S
CHARITON *     SUNNY     73  36  25 SW17G29   29.59F
DES MOINES     MOSUNNY   71  34  25 W20       29.59F
GRINNELL*      SUNNY     72  39  30 SW22      29.58F
KNOXVILLE *    SUNNY     73  36  25 SW15G25   29.57F
MARSHALLTOWN   SUNNY     69  42  37 W15       29.56S
NEWTON *       SUNNY     70  39  32 W18G28    29.57S
PELLA *        SUNNY     74  37  26 SW13G23   29.59F
PERRY *          N/A     65  39  38 W15       29.60S
$$

IAZ004>006-015-016-023>025-035-036-222100-
   NORTH CENTRAL IOWA

CITY           SKY/WX    TMP DP  RH WIND       PRES   REMARKS
ALGONA *       SUNNY     64  48  55 NW7G14    29.57S
CLARION *      SUNNY     63  48  59 SW9       29.57S
ESTHERVILLE    SUNNY     59  48  67 NW16      29.58R
FORT DODGE *   SUNNY     66  46  48 W7        29.59R
MASON CITY     SUNNY     59  42  53 S7        29.57R
FOREST CITY *    N/A     59  43  55 NW10      29.57R
WEBSTER CITY * SUNNY     64  45  48 W12       29.56S
IOWA FALLS *     N/A     65  45  49 SW13      29.58S
$$

IAZ007>011-017>019-026>030-037>042-050>054-066-222100-
   NORTHEAST IOWA

CITY           SKY/WX    TMP DP  RH WIND       PRES   REMARKS
CEDAR RAPIDS   SUNNY     74  44  34 S22G29    29.55F
CHARLES CITY * SUNNY     59  45  58 SW8       29.55F
CLINTON *      SUNNY     73  47  39 S14       29.61F
DECORAH *      CLOUDY    59  41  51 SW8       29.54F
DUBUQUE        SUNNY     70  46  42 S21       29.56F
MONTICELLO *   SUNNY     73  48  40 S18G24    29.55F
OELWEIN *      SUNNY     66  45  45 SW13      29.56F
WATERLOO       SUNNY     67  40  37 S14       29.54F
$$

IAZ064-065-067-068-078-222100-
   EAST CENTRAL IOWA

CITY           SKY/WX    TMP DP  RH WIND       PRES   REMARKS
DAVENPORT      SUNNY     71  47  42 S16G23    29.61F
IOWA CITY      SUNNY     77  43  29 S16G25    29.58F
MUSCATINE *    SUNNY     73  50  43 S15G22    29.60F
QUAD CITIES    SUNNY     73  52  47 S16       29.60F
$$

IAZ062-063-075>077-085>089-095>099-222100-
   SOUTHEAST IOWA

CITY           SKY/WX    TMP DP  RH WIND       PRES   REMARKS
BURLINGTON     SUNNY     70  55  59 SW18G25   29.64F
FAIRFIELD *    SUNNY     75  39  27 S18G28    29.58F
KEOKUK *       SUNNY     68  55  64 S20G28    29.64F
OTTUMWA        SUNNY     79  37  22 S22       29.57F
WASHINGTON *   SUNNY     75  45  33 S23G30    29.58F
$$

ABBREVIATIONS USED IN REMARKS
   TC - TEMPERATURES IN CELSIUS
  WCI - WIND CHILL INDEX
   HX - HEAT INDEX
  VSB - VISIBILITY
$$




USA.gov is the U.S. government's official web portal to all federal, state and local government web resources and services.